QPF
0.00 0.00 0.00 0.00 0.00 0.00 0.00 0.00 0.00 0.00 0.00 0.00 0.00 0.00 0.00 0.00 0.00 0.00 0.00 0.00 0.00 0.00 0.00 0.00 0.00 0.00 0.00 0.00 0.00 0.00 0.01 0.00 0.00 0.00 0.00 0.00 0.00 0.00 0.00 0.00 0.00 0.00 0.00 0.00
0.00 0.00 0.00 0.00 0.00 0.00 0.00 0.00 0.00 0.00 0.00 0.00 0.00 0.00 0.00 0.00 0.00 0.00 0.00 0.00 0.00 0.00 0.00 0.00 0.00 0.00 0.00 0.00 0.00 0.00 0.03 0.02 0.00 0.00 0.00 0.00 0.00 0.00 0.00 0.00 0.00 0.00 0.00 0.00
0.00 0.00 0.00 0.00 0.00 0.00 0.00 0.00 0.00 0.00 0.00 0.00 0.00 0.00 0.00 0.00 0.00 0.00 0.00 0.00 0.00 0.00 0.00 0.00 0.00 0.00 0.00 0.00 0.00 0.01 0.02 0.01 0.00 0.00 0.00 0.00 0.00 0.00 0.00 0.00 0.00 0.00 0.00 0.00
0.00 0.00 0.00 0.00 0.00 0.00 0.00 0.00 0.00 0.00 0.00 0.00 0.00 0.00 0.00 0.00 0.00 0.00 0.00 0.00 0.00 0.00 0.00 0.00 0.00 0.00 0.00 0.00 0.00 0.01 0.02 0.00 0.00 0.00 0.00 0.00 0.00 0.00 0.00 0.00 0.00 0.00 0.00 0.00
0.00 0.00 0.00 0.00 0.00 0.00 0.00 0.00 0.00 0.00 0.00 0.00 0.00 0.00 0.00 0.00 0.00 0.00 0.00 0.00 0.00 0.00 0.00 0.00 0.00 0.00 0.00 0.00 0.00 0.00 0.00 0.01 0.00 0.00 0.00 0.00 0.00 0.00 0.00 0.00 0.00 0.00 0.00 0.00
0.00 0.00 0.00 0.00 0.00 0.00 0.00 0.00 0.00 0.00 0.00 0.00 0.00 0.00 0.00 0.00 0.00 0.00 0.00 0.00 0.00 0.00 0.00 0.00 0.00 0.00 0.00 0.00 0.00 0.00 0.00 0.00 0.00 0.00 0.00 0.00 0.00 0.00 0.00 0.00 0.00 0.00 0.00 0.00
0.00 0.00 0.00 0.00 0.00 0.00 0.00 0.00 0.00 0.00 0.00 0.00 0.00 0.00 0.00 0.00 0.00 0.00 0.00 0.00 0.00 0.00 0.00 0.00 0.00 0.00 0.00 0.00 0.00 0.00 0.00 0.00 0.00 0.00 0.00 0.00 0.00 0.00 0.00 0.00 0.00 0.00 0.00 0.00
0.00 0.00 0.00 0.00 0.00 0.00 0.00 0.00 0.00 0.00 0.00 0.00 0.00 0.00 0.00 0.00 0.00 0.00 0.00 0.00 0.00 0.00 0.00 0.00 0.00 0.00 0.00 0.00 0.00 0.00 0.00 0.00 0.00 0.00 0.00 0.00 0.00 0.00 0.00 0.00 0.00 0.00 0.00 0.00
0.00 0.00 0.00 0.00 0.00 0.00 0.00 0.00 0.00 0.00 0.00 0.00 0.00 0.00 0.00 0.00 0.00 0.00 0.00 0.00 0.00 0.00 0.00 0.01 0.01 0.01 0.00 0.00 0.00 0.00 0.00 0.00 0.00 0.00 0.00 0.00 0.00 0.00 0.00 0.00 0.00 0.00 0.00 0.00
0.00 0.00 0.00 0.00 0.00 0.00 0.00 0.00 0.00 0.00 0.00 0.00 0.00 0.00 0.00 0.00 0.00 0.00 0.00 0.00 0.00 0.00 0.00 0.00 0.00 0.00 0.00 0.00 0.00 0.01 0.00 0.00 0.00 0.00 0.00 0.00 0.00 0.00 0.00 0.00 0.00 0.00 0.00 0.00
0.00 0.00 0.00 0.00 0.00 0.00 0.00 0.00 0.00 0.00 0.00 0.00 0.00 0.00 0.00 0.00 0.00 0.00 0.00 0.00 0.00 0.00 0.00 0.00 0.00 0.00 0.00 0.00 0.00 0.00 0.00 0.00 0.00 0.00 0.00 0.00 0.00 0.00 0.00 0.00 0.00 0.00 0.00 0.00
0.00 0.00 0.00 0.00 0.00 0.00 0.00 0.00 0.00 0.00 0.01 0.00 0.00 0.00 0.00 0.00 0.00 0.00 0.00 0.00 0.00 0.01 0.00 0.00 0.00 0.00 0.00 0.00 0.00 0.00 0.00 0.00 0.00 0.00 0.00 0.00 0.00 0.00 0.00 0.00 0.00 0.00 0.00 0.00
0.00 0.00 0.00 0.00 0.00 0.00 0.00 0.00 0.00 0.00 0.01 0.00 0.00 0.00 0.00 0.00 0.00 0.00 0.00 0.00 0.00 0.00 0.00 0.01 0.00 0.01 0.01 0.00 0.00 0.00 0.00 0.00 0.00 0.00 0.00 0.00 0.00 0.00 0.00 0.00 0.00 0.00 0.00 0.00
0.00 0.00 0.00 0.00 0.00 0.00 0.00 0.00 0.00 0.01 0.01 0.01 0.00 0.00 0.00 0.00 0.00 0.00 0.00 0.00 0.00 0.00 0.01 0.01 0.01 0.00 0.01 0.01 0.00 0.00 0.00 0.00 0.00 0.00 0.00 0.00 0.00 0.00 0.00 0.00 0.00 0.00 0.00 0.00
0.00 0.00 0.00 0.00 0.00 0.00 0.00 0.00 0.00 0.00 0.01 0.00 0.00 0.00 0.00 0.00 0.00 0.00 0.00 0.00 0.00 0.00 0.01 0.02 0.02 0.01 0.00 0.00 0.00 0.00 0.00 0.00 0.00 0.00 0.00 0.00 0.00 0.00 0.00 0.00 0.00 0.00 0.00 0.00
0.00 0.00 0.00 0.00 0.00 0.00 0.00 0.00 0.00 0.00 0.01 0.02 0.00 0.00 0.00 0.00 0.00 0.00 0.00 0.00 0.00 0.00 0.01 0.01 0.01 0.01 0.00 0.01 0.01 0.00 0.00 0.00 0.00 0.00 0.00 0.00 0.00 0.00 0.00 0.00 0.00 0.00 0.00 0.00
0.00 0.00 0.00 0.00 0.00 0.00 0.00 0.00 0.00 0.01 0.01 0.01 0.00 0.00 0.00 0.00 0.00 0.00 0.00 0.00 0.00 0.00 0.01 0.01 0.00 0.00 0.00 0.00 0.00 0.00 0.00 0.00 0.00 0.00 0.00 0.00 0.00 0.00 0.00 0.00 0.00 0.00 0.00 0.00
0.00 0.00 0.00 0.00 0.00 0.00 0.00 0.00 0.00 0.01 0.00 0.00 0.00 0.00 0.00 0.00 0.00 0.00 0.00 0.00 0.00 0.01 0.01 0.00 0.00 0.00 0.00 0.00 0.00 0.00 0.00 0.00 0.00 0.00 0.00 0.00 0.00 0.00 0.00 0.00 0.00 0.00 0.00 0.00
0.00 0.00 0.00 0.00 0.00 0.00 0.00 0.00 0.00 0.00 0.00 0.00 0.00 0.00 0.00 0.00 0.02 0.02 0.01 0.00 0.00 0.00 0.00 0.00 0.00 0.00 0.00 0.00 0.00 0.00 0.00 0.00 0.00 0.00 0.00 0.00 0.00 0.00 0.00 0.00 0.00 0.00 0.00 0.00
0.00 0.00 0.00 0.00 0.00 0.00 0.00 0.00 0.00 0.01 0.00 0.00 0.00 0.00 0.00 0.00 0.01 0.00 0.00 0.00 0.00 0.00 0.00 0.00 0.00 0.00 0.00 0.00 0.00 0.00 0.00 0.00 0.00 0.00 0.00 0.00 0.00 0.00 0.00 0.00 0.00 0.00 0.00 0.00
0.00 0.00 0.00 0.00 0.00 0.00 0.00 0.00 0.00 0.00 0.00 0.00 0.00 0.00 0.00 0.00 0.00 0.00 0.00 0.00 0.00 0.00 0.00 0.00 0.00 0.00 0.00 0.00 0.00 0.00 0.00 0.00 0.00 0.00 0.00 0.00 0.00 0.00 0.00 0.00 0.00 0.00 0.00 0.00
0.00 0.00 0.00 0.00 0.00 0.00 0.00 0.00 0.00 0.00 0.00 0.00 0.00 0.00 0.00 0.00 0.00 0.00 0.00 0.00 0.00 0.00 0.00 0.00 0.00 0.01 0.00 0.00 0.00 0.00 0.00 0.00 0.00 0.00 0.00 0.00 0.00 0.00 0.00 0.00 0.00 0.00 0.00 0.00
0.00 0.00 0.00 0.00 0.00 0.00 0.00 0.00 0.00 0.00 0.00 0.00 0.00 0.00 0.00 0.00 0.00 0.00 0.00 0.00 0.00 0.00 0.00 0.00 0.01 0.00 0.00 0.00 0.00 0.00 0.00 0.00 0.00 0.00 0.00 0.00 0.00 0.00 0.00 0.00 0.00 0.00 0.00 0.00
0.00 0.00 0.00 0.00 0.00 0.00 0.00 0.00 0.00 0.00 0.00 0.00 0.00 0.00 0.00 0.00 0.00 0.00 0.00 0.00 0.00 0.00 0.00 0.00 0.00 0.00 0.00 0.00 0.00 0.00 0.00 0.00 0.00 0.00 0.00 0.00 0.00 0.00 0.00 0.00 0.00 0.00 0.00 0.00
0.00 0.00 0.00 0.00 0.00 0.00 0.00 0.00 0.00 0.00 0.00 0.00 0.00 0.00 0.00 0.01 0.00 0.00 0.00 0.00 0.00 0.00 0.00 0.00 0.00 0.01 0.00 0.00 0.00 0.00 0.00 0.00 0.00 0.00 0.00 0.00 0.00 0.00 0.00 0.00 0.00 0.00 0.00 0.00
0.00 0.00 0.00 0.00 0.00 0.00 0.00 0.00 0.00 0.00 0.00 0.00 0.00 0.00 0.00 0.01 0.00 0.00 0.00 0.00 0.00 0.00 0.00 0.00 0.00 0.00 0.00 0.00 0.00 0.00 0.00 0.00 0.00 0.00 0.00 0.00 0.00 0.00 0.00 0.00 0.00 0.00 0.00 0.00
0.00 0.00 0.00 0.00 0.00 0.00 0.00 0.00 0.00 0.00 0.00 0.00 0.01 0.01 0.00 0.00 0.00 0.00 0.00 0.00 0.00 0.00 0.00 0.00 0.00 0.00 0.00 0.00 0.00 0.00 0.00 0.00 0.00 0.00 0.00 0.00 0.00 0.00 0.00 0.00 0.00 0.00 0.00 0.00
MSLP
1029.19 1028.68 1028.30 1027.77 1027.17 1026.13 1025.91 1026.89 1026.93 1025.13 1024.30 1025.61 1027.42 1028.64 1028.36 1027.75 1027.13 1026.55 1026.35 1026.32 1026.49 1026.47 1026.00 1025.18 1024.35 1022.90 1021.90 1021.40 1020.97 1020.20 1019.25 1018.97 1018.20 1017.47 1017.07 1016.92 1017.07 1017.98 1019.21 1020.90 1022.09 1022.20 1021.60 1018.88
1029.57 1029.08 1028.62 1028.22 1027.73 1027.21 1027.71 1028.70 1028.33 1026.22 1025.76 1028.20 1029.19 1029.01 1028.61 1028.06 1027.61 1027.32 1027.05 1027.06 1027.05 1026.95 1026.65 1025.96 1024.65 1023.56 1022.06 1021.84 1021.32 1020.67 1019.82 1019.32 1018.74 1017.88 1017.49 1017.24 1017.46 1018.04 1019.30 1020.20 1020.77 1021.09 1020.80 1018.25
1029.96 1029.42 1028.98 1028.70 1028.13 1027.67 1028.05 1029.51 1029.87 1028.99 1028.57 1029.55 1029.79 1029.78 1029.40 1028.72 1028.08 1027.76 1027.71 1027.56 1027.36 1027.36 1026.88 1026.24 1025.24 1024.26 1022.66 1022.09 1021.35 1020.47 1019.94 1019.35 1018.92 1018.16 1017.37 1017.49 1017.69 1017.84 1018.61 1019.47 1020.36 1020.13 1019.04 1017.47
1030.24 1029.86 1029.48 1029.06 1028.55 1028.04 1028.59 1030.45 1031.64 1031.51 1031.58 1031.06 1030.72 1030.35 1030.11 1029.60 1029.02 1028.53 1028.15 1028.03 1028.32 1028.50 1027.67 1026.66 1025.47 1024.53 1023.58 1022.56 1021.33 1020.68 1020.47 1019.47 1018.84 1017.91 1017.15 1016.96 1016.82 1017.16 1017.88 1018.52 1018.18 1018.81 1017.65 1017.37
1030.53 1030.23 1029.97 1029.56 1029.01 1028.52 1029.56 1031.38 1031.95 1031.97 1032.00 1031.60 1031.15 1030.91 1030.90 1030.44 1029.98 1029.49 1028.94 1029.01 1028.70 1028.45 1028.15 1027.44 1026.34 1025.80 1024.92 1024.10 1022.13 1021.49 1021.03 1019.89 1018.92 1017.73 1016.69 1016.30 1016.03 1016.02 1016.22 1016.97 1017.50 1017.39 1016.95 1016.37
1030.78 1030.72 1030.52 1030.07 1029.68 1029.33 1030.80 1031.82 1031.87 1032.17 1032.59 1032.15 1031.81 1031.70 1031.40 1031.06 1030.63 1029.81 1029.40 1029.34 1029.16 1028.17 1027.50 1027.21 1026.28 1025.37 1024.58 1024.16 1023.53 1022.74 1022.39 1020.66 1019.35 1017.77 1016.48 1015.66 1015.29 1014.37 1014.52 1015.17 1015.56 1015.58 1015.78 1014.60
1031.11 1031.11 1030.92 1030.76 1030.56 1030.56 1031.42 1032.33 1032.48 1032.83 1033.03 1032.57 1032.25 1031.96 1031.80 1031.40 1031.24 1030.83 1029.74 1029.50 1029.03 1028.04 1027.10 1025.92 1023.90 1023.07 1022.59 1022.59 1022.04 1022.84 1021.95 1021.26 1020.03 1018.42 1016.85 1015.75 1013.73 1012.85 1012.96 1013.59 1013.67 1013.92 1013.71 1013.96
1031.34 1031.41 1031.35 1031.36 1031.24 1031.27 1031.74 1032.49 1032.71 1033.17 1033.27 1032.90 1032.37 1032.09 1031.96 1031.61 1031.15 1030.94 1030.34 1029.46 1029.03 1028.24 1027.44 1026.14 1023.80 1022.04 1021.34 1020.50 1020.64 1020.92 1021.38 1021.57 1020.53 1019.19 1017.82 1015.42 1013.17 1012.67 1012.66 1012.91 1012.49 1012.36 1012.82 1013.65
1031.48 1031.60 1031.66 1031.70 1031.70 1031.77 1032.32 1032.91 1032.93 1033.31 1033.44 1032.99 1032.48 1032.36 1032.22 1031.99 1031.49 1031.07 1030.39 1029.53 1028.78 1028.55 1028.03 1026.96 1025.21 1023.37 1021.92 1020.59 1019.76 1019.59 1020.67 1021.01 1020.50 1019.31 1017.84 1015.78 1013.48 1012.29 1011.95 1012.06 1012.25 1011.89 1012.41 1013.28
1031.56 1031.81 1031.92 1031.99 1032.03 1032.08 1032.56 1033.14 1033.14 1033.23 1033.31 1032.74 1032.48 1032.32 1032.21 1031.90 1031.83 1031.82 1031.17 1030.46 1029.50 1028.94 1028.64 1027.76 1026.47 1024.80 1023.77 1021.87 1020.54 1019.65 1019.88 1020.01 1019.78 1019.15 1017.95 1015.39 1013.16 1012.04 1011.68 1012.04 1012.83 1011.84 1012.00 1012.68
1031.61 1031.84 1032.02 1032.15 1032.20 1032.23 1032.57 1033.18 1033.24 1033.49 1033.53 1032.95 1032.34 1032.07 1031.97 1031.80 1031.93 1032.20 1031.49 1031.16 1030.22 1029.75 1029.21 1028.63 1027.92 1026.75 1025.28 1023.87 1021.99 1019.37 1018.88 1018.93 1018.91 1018.73 1017.45 1015.07 1012.77 1011.94 1011.82 1012.02 1011.67 1011.63 1012.00 1012.67
1031.57 1031.86 1032.09 1032.22 1032.34 1032.36 1032.51 1033.05 1033.16 1033.46 1033.53 1032.64 1031.97 1031.53 1031.19 1030.90 1031.05 1031.48 1031.55 1031.40 1031.03 1030.22 1029.75 1029.29 1028.55 1027.82 1026.38 1024.85 1022.84 1019.76 1018.87 1018.16 1017.48 1016.58 1015.07 1013.35 1012.58 1012.10 1011.49 1011.37 1011.57 1011.47 1011.86 1012.81
1031.45 1031.80 1032.12 1032.24 1032.35 1032.40 1032.48 1032.83 1033.20 1033.18 1033.08 1031.86 1031.33 1030.34 1029.93 1029.92 1029.95 1030.13 1031.23 1031.13 1030.75 1030.14 1029.97 1029.75 1028.97 1028.19 1026.89 1025.46 1023.44 1021.71 1019.64 1017.66 1016.57 1015.46 1013.88 1012.78 1012.05 1011.37 1011.19 1010.97 1011.24 1011.43 1011.78 1012.59
1031.40 1031.69 1031.97 1032.22 1032.40 1032.46 1032.51 1032.72 1032.68 1033.07 1033.12 1032.58 1030.52 1029.30 1029.18 1028.47 1028.80 1029.43 1029.90 1029.92 1030.13 1030.15 1030.05 1029.63 1028.84 1027.97 1026.84 1025.40 1024.14 1022.85 1021.00 1018.60 1016.33 1014.88 1013.15 1012.02 1011.45 1011.24 1011.01 1011.02 1011.39 1011.76 1011.98 1012.56
1031.31 1031.59 1031.90 1032.19 1032.37 1032.33 1032.62 1032.58 1032.47 1032.69 1033.16 1032.48 1030.81 1029.29 1027.61 1027.30 1028.14 1028.66 1029.15 1029.92 1030.41 1030.21 1029.79 1029.01 1028.03 1027.11 1026.38 1024.88 1023.52 1020.80 1018.93 1017.46 1016.39 1014.96 1013.74 1013.33 1012.10 1011.39 1011.06 1011.11 1011.66 1012.14 1012.48 1013.35
1031.12 1031.46 1031.73 1031.99 1032.22 1032.34 1032.54 1032.36 1032.05 1031.94 1032.34 1032.53 1031.37 1029.28 1027.75 1027.35 1027.25 1027.83 1028.64 1029.09 1029.72 1029.71 1029.12 1028.14 1027.06 1026.41 1026.48 1024.79 1022.43 1019.23 1017.84 1017.07 1016.30 1015.55 1014.18 1013.08 1012.25 1011.59 1011.26 1011.42 1012.02 1012.53 1013.09 1013.69
1030.94 1031.23 1031.64 1031.87 1032.05 1032.66 1032.57 1032.57 1032.13 1031.86 1032.13 1032.32 1031.49 1029.84 1027.86 1026.99 1027.06 1027.59 1028.17 1028.54 1028.65 1028.59 1028.08 1027.00 1026.22 1025.73 1025.78 1024.01 1021.77 1017.90 1016.77 1016.46 1015.75 1014.87 1014.34 1012.66 1011.66 1011.61 1011.49 1011.90 1012.47 1013.07 1013.73 1014.47
1030.83 1031.24 1031.51 1031.90 1031.86 1032.10 1032.05 1031.66 1031.56 1032.16 1032.61 1032.45 1031.48 1029.86 1028.37 1026.91 1027.13 1027.41 1027.38 1027.73 1027.74 1027.19 1026.54 1025.95 1025.37 1025.04 1024.68 1022.16 1017.63 1017.18 1016.67 1016.35 1015.36 1014.49 1014.07 1013.13 1012.21 1011.92 1012.01 1012.48 1013.04 1013.80 1014.55 1015.26
1030.68 1031.22 1031.46 1031.97 1031.81 1031.80 1031.18 1030.58 1030.62 1031.65 1032.26 1031.73 1030.69 1029.77 1028.62 1027.17 1027.12 1026.97 1026.91 1026.83 1026.37 1025.99 1025.28 1024.91 1024.97 1023.81 1022.25 1017.64 1017.02 1016.18 1015.89 1015.73 1014.78 1014.05 1013.51 1012.68 1012.32 1012.44 1012.46 1012.77 1013.52 1014.16 1015.04 1015.79
1030.80 1031.31 1032.03 1031.70 1031.12 1030.50 1030.41 1030.51 1031.06 1031.28 1031.32 1031.28 1029.84 1028.73 1028.36 1027.74 1027.29 1026.98 1026.98 1026.35 1025.79 1025.08 1024.23 1024.01 1023.49 1021.58 1018.85 1017.45 1016.13 1015.80 1014.89 1015.00 1014.74 1014.52 1013.87 1013.21 1013.07 1013.19 1013.27 1013.22 1013.34 1013.80 1014.64 1015.67
1031.02 1031.36 1031.68 1031.14 1030.32 1030.37 1030.12 1029.94 1030.22 1030.40 1030.17 1029.35 1028.16 1027.75 1027.46 1027.31 1027.35 1027.04 1026.59 1026.05 1025.20 1024.35 1023.36 1023.27 1022.06 1020.07 1017.36 1015.87 1015.15 1014.23 1013.90 1014.15 1014.02 1013.99 1013.77 1013.63 1013.41 1013.28 1013.22 1013.35 1013.60 1013.93 1014.57 1015.36
1030.17 1030.59 1031.02 1031.04 1030.56 1030.06 1030.08 1029.52 1029.37 1029.12 1028.33 1027.49 1027.22 1026.96 1027.08 1026.88 1026.57 1026.62 1026.21 1025.73 1025.03 1023.74 1023.26 1022.38 1020.71 1018.38 1016.50 1015.44 1014.33 1013.54 1012.93 1013.09 1013.18 1013.35 1013.35 1013.24 1013.17 1012.94 1013.01 1013.14 1013.47 1013.83 1014.30 1015.24
1030.43 1030.94 1031.22 1030.95 1030.36 1029.76 1029.05 1028.54 1028.22 1027.90 1026.95 1026.24 1026.33 1026.46 1026.36 1026.50 1026.43 1026.37 1026.11 1025.39 1024.01 1022.77 1022.20 1020.78 1019.26 1017.86 1016.62 1015.33 1014.28 1013.47 1012.79 1012.63 1013.05 1013.15 1013.04 1012.92 1012.79 1012.77 1012.87 1012.89 1013.05 1013.61 1014.29 1014.89
1030.37 1030.73 1030.93 1030.37 1029.43 1028.22 1027.06 1026.59 1026.31 1026.07 1025.97 1025.74 1025.89 1026.10 1026.14 1026.23 1026.46 1026.05 1025.73 1024.29 1023.48 1022.40 1020.98 1019.44 1019.09 1017.66 1016.51 1015.46 1014.63 1014.01 1013.73 1013.37 1013.18 1013.11 1013.06 1012.96 1012.90 1012.76 1012.65 1012.77 1013.01 1013.42 1014.08 1014.83
1029.85 1029.99 1029.57 1028.58 1027.40 1026.61 1026.25 1025.97 1025.99 1025.60 1025.38 1025.43 1025.67 1025.69 1025.82 1025.98 1026.07 1025.73 1025.10 1023.96 1022.68 1021.41 1020.11 1019.73 1018.87 1017.74 1016.82 1016.07 1015.54 1014.96 1014.63 1014.26 1013.85 1013.55 1013.28 1013.03 1012.83 1012.78 1012.62 1012.63 1012.80 1013.14 1013.76 1014.56
1029.20 1029.08 1028.23 1027.35 1027.23 1026.53 1026.06 1025.52 1025.46 1025.13 1024.93 1024.89 1024.97 1025.12 1025.32 1024.94 1024.88 1024.95 1024.13 1023.30 1021.68 1020.19 1019.68 1019.52 1018.75 1017.90 1017.06 1016.51 1016.19 1015.85 1015.46 1014.84 1014.39 1013.95 1013.65 1013.29 1013.06 1013.04 1012.86 1012.71 1012.76 1012.99 1013.43 1014.04
1028.27 1027.57 1027.22 1026.98 1026.80 1026.16 1025.65 1025.04 1024.67 1024.17 1024.45 1024.53 1024.35 1024.48 1024.04 1023.93 1023.76 1023.53 1022.90 1022.17 1020.78 1020.39 1019.84 1018.89 1018.52 1018.14 1017.53 1016.71 1016.71 1016.43 1015.82 1015.59 1015.19 1014.62 1014.17 1013.89 1013.58 1013.20 1012.96 1012.87 1012.77 1012.89 1013.13 1013.49
Thickness
5501 5506 5510 5514 5519 5528 5532 5519 5509 5534 5540 5517 5494 5490 5505 5512 5512 5512 5507 5507 5501 5495 5495 5499 5499 5512 5517 5516 5516 5515 5528 5521 5518 5540 5545 5549 5551 5541 5530 5528 5514 5495 5495 5529
5493 5497 5502 5505 5509 5513 5510 5498 5496 5521 5523 5481 5473 5498 5499 5501 5497 5497 5496 5489 5489 5487 5479 5483 5492 5497 5510 5504 5507 5510 5521 5511 5512 5534 5541 5542 5542 5541 5521 5507 5513 5525 5532 5550
5483 5488 5493 5495 5499 5503 5501 5487 5475 5487 5491 5481 5482 5482 5484 5483 5488 5489 5483 5484 5483 5473 5474 5482 5479 5481 5500 5499 5502 5513 5517 5525 5523 5528 5544 5536 5534 5541 5536 5534 5522 5520 5534 5560
5475 5479 5483 5486 5490 5494 5490 5468 5457 5466 5454 5464 5468 5472 5473 5469 5467 5472 5471 5471 5460 5453 5460 5460 5474 5483 5480 5488 5501 5507 5509 5518 5526 5535 5543 5544 5548 5551 5544 5530 5544 5543 5554 5548
5465 5468 5470 5474 5479 5483 5472 5456 5453 5451 5450 5453 5461 5457 5453 5455 5452 5456 5459 5449 5445 5439 5439 5450 5451 5457 5459 5460 5488 5493 5504 5518 5524 5533 5547 5548 5549 5556 5557 5546 5546 5546 5554 5560
5456 5457 5459 5464 5467 5471 5456 5449 5449 5443 5441 5444 5446 5443 5443 5442 5441 5445 5445 5439 5429 5432 5439 5438 5443 5446 5451 5455 5461 5474 5479 5508 5521 5536 5545 5550 5547 5555 5563 5557 5554 5561 5552 5577
5446 5447 5450 5451 5452 5454 5448 5439 5436 5428 5426 5432 5434 5432 5429 5431 5427 5425 5428 5425 5427 5435 5435 5439 5454 5455 5459 5463 5469 5468 5482 5496 5511 5526 5538 5527 5561 5578 5576 5569 5571 5569 5579 5580
5436 5437 5439 5438 5439 5439 5437 5432 5427 5418 5404 5419 5422 5423 5420 5417 5417 5415 5415 5419 5420 5419 5422 5438 5458 5474 5492 5494 5480 5481 5481 5487 5502 5514 5526 5546 5573 5576 5573 5572 5579 5582 5582 5581
5427 5428 5428 5428 5427 5427 5425 5420 5419 5411 5399 5405 5413 5410 5406 5402 5411 5407 5409 5411 5413 5412 5412 5427 5451 5473 5489 5503 5509 5500 5489 5489 5499 5502 5526 5540 5562 5577 5582 5581 5559 5589 5585 5579
5418 5418 5418 5417 5417 5415 5414 5409 5408 5406 5389 5400 5401 5396 5395 5397 5394 5384 5387 5394 5398 5403 5397 5415 5428 5444 5449 5486 5501 5512 5501 5498 5505 5498 5494 5537 5566 5576 5583 5569 5562 5587 5589 5581
5409 5409 5408 5407 5407 5405 5403 5399 5398 5392 5383 5386 5393 5392 5388 5386 5375 5362 5374 5373 5384 5382 5390 5396 5402 5417 5432 5438 5467 5498 5510 5506 5508 5504 5507 5525 5571 5577 5578 5570 5583 5589 5587 5585
5400 5399 5399 5398 5397 5396 5394 5391 5390 5385 5381 5380 5384 5385 5385 5383 5378 5371 5366 5364 5368 5375 5368 5377 5389 5407 5421 5435 5446 5495 5508 5511 5516 5523 5535 5560 5567 5574 5581 5581 5582 5592 5593 5585
5392 5391 5390 5389 5388 5387 5386 5383 5380 5378 5375 5378 5377 5381 5386 5382 5375 5369 5356 5351 5359 5368 5371 5381 5391 5397 5414 5425 5450 5464 5493 5512 5523 5538 5558 5566 5573 5578 5584 5590 5591 5592 5595 5587
5384 5383 5382 5381 5380 5378 5375 5374 5373 5369 5367 5364 5373 5385 5380 5380 5373 5363 5358 5355 5354 5359 5364 5372 5386 5397 5410 5425 5437 5444 5469 5496 5525 5541 5561 5574 5579 5581 5587 5590 5587 5585 5588 5589
5376 5375 5374 5372 5372 5372 5366 5367 5367 5363 5361 5358 5361 5374 5382 5378 5368 5359 5354 5346 5343 5350 5360 5375 5393 5403 5413 5428 5440 5467 5494 5505 5519 5538 5552 5556 5569 5578 5585 5591 5588 5583 5584 5581
5369 5368 5367 5367 5365 5362 5358 5361 5364 5363 5357 5352 5351 5364 5371 5372 5369 5362 5353 5349 5344 5350 5359 5376 5395 5407 5408 5429 5456 5490 5505 5512 5523 5532 5548 5557 5567 5576 5585 5589 5583 5583 5582 5581
5363 5363 5361 5360 5359 5353 5349 5346 5357 5355 5350 5346 5345 5352 5367 5374 5370 5361 5354 5352 5351 5356 5366 5383 5400 5411 5412 5431 5451 5498 5513 5518 5526 5537 5542 5562 5575 5576 5583 5583 5579 5577 5576 5574
5356 5354 5355 5352 5353 5348 5348 5352 5352 5344 5339 5337 5343 5347 5358 5373 5367 5366 5363 5360 5362 5371 5382 5391 5404 5415 5420 5443 5490 5498 5508 5514 5527 5539 5543 5554 5567 5573 5576 5575 5574 5572 5569 5567
5350 5348 5347 5344 5345 5344 5349 5353 5350 5342 5336 5341 5348 5340 5345 5366 5367 5370 5372 5371 5376 5380 5390 5402 5407 5423 5438 5487 5496 5507 5514 5518 5531 5541 5549 5561 5570 5571 5572 5575 5573 5570 5565 5563
5343 5341 5336 5330 5343 5349 5349 5346 5343 5340 5339 5336 5346 5352 5349 5361 5364 5372 5360 5374 5380 5393 5403 5410 5419 5436 5470 5488 5502 5509 5521 5522 5528 5535 5547 5557 5562 5564 5569 5571 5574 5575 5570 5563
5334 5332 5327 5338 5344 5344 5346 5348 5346 5344 5346 5349 5357 5360 5362 5361 5362 5361 5366 5368 5386 5405 5419 5417 5430 5451 5479 5498 5505 5518 5525 5528 5535 5539 5546 5551 5558 5563 5567 5570 5571 5570 5567 5566
5333 5332 5331 5332 5338 5341 5345 5350 5348 5351 5356 5358 5358 5358 5362 5364 5366 5369 5374 5378 5388 5414 5405 5423 5448 5468 5492 5502 5511 5522 5531 5535 5539 5542 5547 5552 5557 5565 5567 5568 5570 5569 5570 5564
5325 5322 5322 5327 5335 5342 5352 5328 5355 5349 5357 5367 5363 5365 5364 5365 5367 5368 5375 5385 5400 5415 5424 5448 5452 5476 5489 5500 5512 5523 5532 5539 5538 5540 5546 5552 5557 5564 5567 5571 5573 5574 5569 5566
5315 5316 5316 5326 5328 5356 5360 5364 5364 5360 5361 5365 5364 5363 5365 5362 5364 5367 5376 5392 5402 5423 5443 5458 5446 5471 5482 5492 5504 5516 5520 5527 5535 5540 5543 5549 5554 5561 5566 5567 5572 5567 5568 5563
5315 5318 5325 5336 5350 5355 5359 5358 5357 5361 5362 5363 5363 5362 5362 5362 5365 5372 5378 5392 5412 5429 5444 5437 5453 5464 5475 5487 5493 5504 5511 5515 5525 5531 5538 5544 5550 5555 5559 5563 5567 5568 5567 5563
5314 5317 5331 5347 5348 5350 5344 5354 5354 5359 5362 5363 5364 5366 5361 5374 5374 5379 5391 5397 5418 5435 5437 5441 5450 5464 5477 5480 5486 5491 5499 5509 5516 5524 5530 5537 5542 5547 5553 5558 5563 5565 5565 5562
5314 5326 5331 5334 5342 5351 5350 5353 5356 5360 5358 5357 5359 5364 5375 5367 5374 5381 5388 5402 5414 5418 5425 5438 5447 5457 5468 5476 5479 5484 5491 5496 5504 5513 5521 5527 5533 5541 5548 5555 5560 5562 5564 5562